Regional Weather Roundup
Issued by NWS

Home | Current Version | Previous Version | Graphics & Text | Print | Product List | Glossary On
Versions: 1 2 3 4 5 6 7 8 9 10 11 12 13 14 15 16 17 18 19 20 21 22 23 24 25 26 27 28 29 30 31 32 33 34 35 36 37 38 39 40 41 42 43 44 45 46 47 48 49 50
000
ASUS43 KMKX 300700
RWRWI

WISCONSIN REGIONAL WEATHER ROUNDUP
NATIONAL WEATHER SERVICE MILWAUKEE/SULLIVAN WI
200 AM CDT SAT JUL 30 2016

NOTE: "FAIR" INDICATES FEW OR NO CLOUDS BELOW 12,000 FEET WITH NO
SIGNIFICANT WEATHER AND/OR OBSTRUCTIONS TO VISIBILITY.

WIZ001-002-006>008-014>016-023>028-300800-
NORTHWEST WISCONSIN

CITY           SKY/WX    TMP DP  RH WIND       PRES   REMARKS
SUPERIOR ARPT  CLEAR     52  52  99 CALM      30.07S
ASHLAND        PTCLDY    53  52  96 W3        30.06F
HAYWARD        CLEAR     54  52  93 CALM      30.07S
SIREN          NOT AVBL
CUMBERLAND     CLEAR     59  55  88 CALM      30.06S
RICE LAKE      CLEAR     58  55  92 N3        30.07S
CHETEK         CLEAR     61  58  91 CALM      30.06S
LADYSMITH      CLEAR     59  57  93 CALM      30.08S
EAU CLAIRE     NOT AVBL
MENOMONIE      PTCLDY    62  59  89 CALM      30.04S
NEW RICHMOND   PTCLDY    58  57  96 CALM      30.05S
OSCEOLA        CLOUDY    59  59 100 CALM      30.07S
$$

WIZ003>005-009-010-017-018-300800-
NORTH CENTRAL WISCONSIN

CITY           SKY/WX    TMP DP  RH WIND       PRES   REMARKS
MANITOWISH WTR PTCLDY    56  56 100 CALM      30.09R
ARBOR VITAE    PTCLDY    62  60  93 CALM      30.09S
WOODRUFF       PTCLDY    62  60  93 CALM      30.09S
RHINELANDER    CLEAR     54  52  93 CALM      30.09S
EAGLE RIVER    MOCLDY    57  57 100 CALM      30.09S
LAND O LAKES   CLEAR     54  52  95 CALM      30.11R
PHILLIPS       CLOUDY    57  57 100 CALM      30.08R
TOMAHAWK       FOG       51  50  97 CALM      30.09S VSB 1
MEDFORD        FOG       55  55 100 CALM      30.07S VSB 1
MERRILL        CLEAR     53  53 100 CALM      30.08S
$$

WIZ029-030-035-036-043>047-300800-
CENTRAL WISCONSIN

CITY           SKY/WX    TMP DP  RH WIND       PRES   REMARKS
WAUSAU         PTCLDY    60  56  86 CALM      30.05R
MOSINEE        CLEAR     59  57  94 N3        30.07R
MARSHFIELD     CLEAR     62  57  83 NE3       30.05S
STEVENS POINT  CLOUDY    56  56  99 CALM      30.05R
WAUPACA        CLOUDY    66  63  90 CALM      30.03S
WAUTOMA        CLOUDY    65  60  84 N5        30.02F
WISC RAPIDS    MOCLDY    61  56  83 CALM      30.04S
CAMP DOUGLAS   PTCLDY    61  61 100 CALM      30.03R
$$

WIZ011>013-019>022-031-037>040-048>050-300800-
NORTHEAST WISCONSIN

CITY           SKY/WX    TMP DP  RH WIND       PRES   REMARKS
ANTIGO         CLEAR     54  53  96 CALM      30.08R
SHAWANO        CLOUDY    65  58  77 NE7       30.05R
OCONTO         PTCLDY    62  62 100 N3        30.03S
STURGEON BAY   CLEAR     67  61  81 E6        30.03F
GREEN BAY      CLEAR     61  59  93 NE5       30.02S
MANITOWOC      NOT AVBL
APPLETON       CLOUDY    64  52  63 NE3       30.01S
CLINTONVILLE   CLOUDY    63  55  77 CALM      30.03S
OSHKOSH        CLOUDY    69  59  70 E8        30.01S
$$

WIZ032>034-041-042-053>061-300800-
SOUTHWEST WISCONSIN

CITY           SKY/WX    TMP DP  RH WIND       PRES   REMARKS
LA CROSSE      CLOUDY    68  65  90 N3        30.01S
SPARTA         CLOUDY    60  60 100 CALM      30.03S
VIROQUA        CLOUDY    64  64 100 CALM      30.03S
BOSCOBEL       FOG       61  61 100 CALM      30.00S VSB 1/4
PRAIRIE DU CHI MOCLDY    66  64  91 CALM      30.00R
PLATTEVILLE    CLEAR     65  65  99 NE6       30.00S
$$

WIZ056-057-062-063-064-067-068-300800-
SOUTH CENTRAL WISCONSIN

CITY           SKY/WX    TMP DP  RH WIND       PRES   REMARKS
REEDSBURG      PTCLDY    63  62  96 CALM      30.01S
BARABOO/DELLS  PTCLDY    62  59  90 NE5       30.02R
LONE ROCK      NOT AVBL
MINERAL POINT  CLEAR     64  63  94 CALM      30.00S
MADISON        CLOUDY    65  60  84 CALM      29.99S
MIDDLETON      CLOUDY    66  62  87 CALM      30.00S
WATERTOWN      CLOUDY    65  64  97 CALM      29.99S
MONROE         CLOUDY    64  63  94 N6        29.98F
JANESVILLE     CLOUDY    66  64  94 NE6       29.97S
$$

WIZ051-052-058>065-066-070>072-300800-
SOUTHEAST WISCONSIN

CITY           SKY/WX    TMP DP  RH WIND       PRES   REMARKS
MILWAUKEE      PTCLDY    70  60  70 E12       29.97F
WAUKESHA       CLOUDY    64  61  88 E5        30.00S
MILWAUKEE/TIMM CLEAR     66  59  77 NE3       30.00S
RACINE         CLOUDY    68  64  87 E9        29.98F
BURLINGTON     CLEAR     63  62  98 CALM      29.97S
KENOSHA        CLEAR     68  65  90 E8        29.97S
FOND DU LAC    CLOUDY    67  58  72 NE5       30.01S
SHEBOYGAN      PTCLDY    62  60  93 CALM      30.01S
WEST BEND      CLOUDY    63  59  88 CALM      30.00S
JUNEAU         CLOUDY    65  58  79 E5        30.01S
$$

LSZ147-162-300800-
LAKE SUPERIOR

STATION/POSITION TIME  TEMP    WIND        PRES    WAVE
                       AIR SEA DIR/SP/G            HT/PER
                 (UTC) (F)     (DEG/KT/KT) (MB)    (FT/S)
W MID LAKE BUOY  0550   63 62   70/  2/  4 1017.6F   1
DEVILS ISLAND    0600   64      10/  8/  9 1018.1S
PORT WING        0640   56     150/  3/  3 1018.3S
SAXON HARBOR     0640   57     180/  2/  3 1017.6S
$$

LMZ867-665-643>646-300800-
LAKE MICHIGAN

STATION/POSITION TIME  TEMP    WIND        PRES    WAVE
                       AIR SEA DIR/SP/G            HT/PER
                 (UTC) (F)     (DEG/KT/KT) (MB)    (FT/S)
CHAMBERS ISLAND  0600   70      40/  7/ 11 1017.3
S GREEN BAY BUOY 0530   69 70   60/ 14/ 16 1016.2S
N MID LAKE BUOY  0550   70 69  110/ 10/ 10 1016.8S   1/ 4
NORTHPORT PIER   0600   70      70/  9/ 11 1017.3S
SISTER BAY       0606   66      80/  1/  3   N/A
ALGOMA LAKESHORE 0643           90/  5/  7   N/A
KEWAUNEE LAKESHO 0600   68      20/  2/  5 1016.1S
SHEBOYGAN LAKESH 0600   71     110/  9/ 10 1016.2F
PORT WASHINGTON  0640   67      60/  3/  6 1016.6R
ATWATER BUOY     0600   67      80/  4/  8 1016.9R
MILWAUKEE LAKESH 0610   66      50/  6/  6   N/A
S MID LAKE BUOY  0550   68 74   70/ 17/ 21 1014.1R   3/ 4
KENOSHA   LAKESH 0600   72      80/ 11/ 13 1014.6S
$$

TC  - TEMPERATURE IN CELSIUS
VSB - VISIBILITY IN STATUTE MILES
WCI - WIND CHILL INDEX
HX  - HEAT INDEX





USA.gov is the U.S. government's official web portal to all federal, state and local government web resources and services.